Location: Sungai Anya
(2.6167°N, 114.0500°E)
Time: 21:54:55
(UTC+00:00)

Cosmos 1153 Rocket - Pass Details

Date: 31 May 2022
Orbit: 954 x 1005 km, 82.9° (Epoch: 02 July)

Event Time Altitude Azimuth Distance (km) Brightness Sun altitude
Rises 20:21:46 0° 33° (NNE) 3,719 8.4 -26.4°
Reaches altitude 10° 20:25:57 10° 60° (ENE) 2,772 7.9 -25.5°
Maximum altitude 20:28:42 13° 86° (E) 2,551 7.5 -24.9°
Drops below altitude 10° 20:31:27 10° 112° (ESE) 2,771 7.4 -24.3°
Sets 20:35:36 0° 138° (SE) 3,716 7.8 -23.3°
